Time,TemperatureF,DewpointF,PressureIn,WindDirection,WindDirectionDegrees,WindSpeedMPH,WindSpeedGustMPH,Humidity,HourlyPrecipIn,Conditions,Clouds,dailyrainin,SoftwareType,DateUTC
2013-04-28 00:01:00,47.2,36.0,30.35,South,172,0.0,0.0,65,0.00,,,0.00,WeatherCatV1.11B39,2013-04-28 04:01:00,
2013-04-28 00:06:00,47.0,35.5,30.35,South,172,0.0,0.0,64,0.00,,,0.00,WeatherCatV1.11B39,2013-04-28 04:06:00,
2013-04-28 00:11:00,46.9,35.4,30.35,South,172,0.0,0.0,64,0.00,,,0.00,WeatherCatV1.11B39,2013-04-28 04:11:00,
2013-04-28 00:16:00,46.6,34.7,30.35,South,172,0.0,0.0,63,0.00,,,0.00,WeatherCatV1.11B39,2013-04-28 04:16:00,
2013-04-28 00:21:00,46.5,34.6,30.35,South,172,0.0,0.0,63,0.00,,,0.00,WeatherCatV1.11B39,2013-04-28 04:21:00,
2013-04-28 00:26:00,46.3,34.4,30.36,South,172,0.0,0.0,63,0.00,,,0.00,WeatherCatV1.11B39,2013-04-28 04:26:00,
2013-04-28 00:31:00,46.2,34.7,30.35,South,172,0.0,0.0,64,0.00,,,0.00,WeatherCatV1.11B39,2013-04-28 04:31:00,
2013-04-28 00:36:00,46.0,34.5,30.35,South,172,0.0,0.0,64,0.00,,,0.00,WeatherCatV1.11B39,2013-04-28 04:36:00,
2013-04-28 00:41:00,45.7,35.0,30.35,South,172,0.0,0.0,66,0.00,,,0.00,WeatherCatV1.11B39,2013-04-28 04:41:00,
2013-04-28 00:46:00,45.4,34.7,30.35,South,172,0.0,0.0,66,0.00,,,0.00,WeatherCatV1.11B39,2013-04-28 04:46:00,
2013-04-28 00:51:00,45.1,35.2,30.34,South,172,0.0,0.0,68,0.00,,,0.00,WeatherCatV1.11B39,2013-04-28 04:51:00,
2013-04-28 00:56:00,44.8,34.9,30.35,South,172,0.0,0.0,68,0.00,,,0.00,WeatherCatV1.11B39,2013-04-28 04:56:00,
2013-04-28 01:01:00,44.6,34.7,30.34,South,172,0.0,0.0,68,0.00,,,0.00,WeatherCatV1.11B39,2013-04-28 05:01:00,
2013-04-28 01:06:00,44.5,34.6,30.34,South,172,0.0,0.0,68,0.00,,,0.00,WeatherCatV1.11B39,2013-04-28 05:06:00,
2013-04-28 01:11:00,44.5,35.0,30.34,South,172,0.0,0.0,69,0.00,,,0.00,WeatherCatV1.11B39,2013-04-28 05:11:00,
2013-04-28 01:16:00,44.3,34.8,30.34,South,172,0.0,0.0,69,0.00,,,0.00,WeatherCatV1.11B39,2013-04-28 05:16:00,
2013-04-28 01:21:00,44.1,35.0,30.34,South,172,0.0,0.0,70,0.00,,,0.00,WeatherCatV1.11B39,2013-04-28 05:21:00,
2013-04-28 01:26:00,43.9,35.1,30.34,South,172,0.0,0.0,71,0.00,,,0.00,WeatherCatV1.11B39,2013-04-28 05:26:00,
2013-04-28 01:31:00,43.7,35.3,30.34,South,172,0.0,0.0,72,0.00,,,0.00,WeatherCatV1.11B39,2013-04-28 05:31:00,
2013-04-28 01:36:00,43.7,35.3,30.33,South,172,0.0,0.0,72,0.00,,,0.00,WeatherCatV1.11B39,2013-04-28 05:36:00,
2013-04-28 01:41:00,43.5,35.4,30.33,South,172,0.0,0.0,73,0.00,,,0.00,WeatherCatV1.11B39,2013-04-28 05:41:00,
2013-04-28 01:46:00,43.5,35.1,30.33,South,172,0.0,0.0,72,0.00,,,0.00,WeatherCatV1.11B39,2013-04-28 05:46:00,
2013-04-28 01:51:00,43.3,35.6,30.33,South,172,0.0,0.0,74,0.00,,,0.00,WeatherCatV1.11B39,2013-04-28 05:51:00,
2013-04-28 01:56:00,43.3,36.3,30.33,South,172,0.0,0.0,76,0.00,,,0.00,WeatherCatV1.11B39,2013-04-28 05:56:00,
2013-04-28 02:01:00,43.3,35.9,30.33,South,172,0.0,0.0,75,0.00,,,0.00,WeatherCatV1.11B39,2013-04-28 06:01:00,
2013-04-28 02:06:00,43.2,36.2,30.33,South,172,0.0,0.0,76,0.00,,,0.00,WeatherCatV1.11B39,2013-04-28 06:06:00,
2013-04-28 02:11:00,42.9,35.9,30.33,South,172,0.0,0.0,76,0.00,,,0.00,WeatherCatV1.11B39,2013-04-28 06:11:00,
2013-04-28 02:16:00,42.9,36.2,30.33,South,172,0.0,0.0,77,0.00,,,0.00,WeatherCatV1.11B39,2013-04-28 06:16:00,
2013-04-28 02:21:00,42.8,36.4,30.32,South,172,0.0,0.0,78,0.00,,,0.00,WeatherCatV1.11B39,2013-04-28 06:21:00,
2013-04-28 02:26:00,42.5,36.1,30.33,South,172,0.0,0.0,78,0.00,,,0.00,WeatherCatV1.11B39,2013-04-28 06:26:00,
2013-04-28 02:31:00,42.2,35.8,30.33,South,172,0.0,0.0,78,0.00,,,0.00,WeatherCatV1.11B39,2013-04-28 06:31:00,
2013-04-28 02:36:00,42.2,35.8,30.32,South,172,0.0,0.0,78,0.00,,,0.00,WeatherCatV1.11B39,2013-04-28 06:36:00,
2013-04-28 02:41:00,42.2,36.5,30.33,South,172,0.0,0.0,80,0.00,,,0.00,WeatherCatV1.11B39,2013-04-28 06:41:00,
2013-04-28 02:46:00,42.1,36.7,30.32,South,172,0.0,0.0,81,0.00,,,0.00,WeatherCatV1.11B39,2013-04-28 06:46:00,
2013-04-28 02:51:00,42.1,36.4,30.32,South,172,0.0,0.0,80,0.00,,,0.00,WeatherCatV1.11B39,2013-04-28 06:51:00,
2013-04-28 02:56:00,41.7,35.7,30.32,South,172,0.0,0.0,79,0.00,,,0.00,WeatherCatV1.11B39,2013-04-28 06:56:00,
2013-04-28 03:01:00,41.2,35.2,30.33,South,172,0.0,0.0,79,0.00,,,0.00,WeatherCatV1.11B39,2013-04-28 07:01:00,
2013-04-28 03:06:00,41.1,35.1,30.33,South,172,0.0,0.0,79,0.00,,,0.00,WeatherCatV1.11B39,2013-04-28 07:06:00,
2013-04-28 03:11:00,40.9,34.6,30.33,South,172,0.0,0.0,78,0.00,,,0.00,WeatherCatV1.11B39,2013-04-28 07:11:00,
2013-04-28 03:16:00,40.8,34.5,30.33,South,172,0.0,0.0,78,0.00,,,0.00,WeatherCatV1.11B39,2013-04-28 07:16:00,
2013-04-28 03:21:00,40.7,34.7,30.33,South,172,0.0,0.0,79,0.00,,,0.00,WeatherCatV1.11B39,2013-04-28 07:21:00,
2013-04-28 03:26:00,40.6,34.6,30.33,South,172,0.0,0.0,79,0.00,,,0.00,WeatherCatV1.11B39,2013-04-28 07:26:00,
2013-04-28 03:31:00,40.5,34.8,30.33,South,172,0.0,0.0,80,0.00,,,0.00,WeatherCatV1.11B39,2013-04-28 07:31:00,
2013-04-28 03:36:00,40.2,34.5,30.33,South,172,0.0,0.0,80,0.00,,,0.00,WeatherCatV1.11B39,2013-04-28 07:36:00,
2013-04-28 03:41:00,39.9,34.6,30.33,South,172,0.0,0.0,81,0.00,,,0.00,WeatherCatV1.11B39,2013-04-28 07:41:00,
2013-04-28 03:46:00,40.0,34.6,30.33,South,172,0.0,0.0,81,0.00,,,0.00,WeatherCatV1.11B39,2013-04-28 07:46:00,
2013-04-28 03:51:00,39.8,34.5,30.33,South,172,0.0,0.0,81,0.00,,,0.00,WeatherCatV1.11B39,2013-04-28 07:51:00,
2013-04-28 03:56:00,39.7,34.4,30.33,South,172,0.0,0.0,81,0.00,,,0.00,WeatherCatV1.11B39,2013-04-28 07:56:00,
2013-04-28 04:01:00,39.5,34.2,30.33,South,172,0.0,0.0,81,0.00,,,0.00,WeatherCatV1.11B39,2013-04-28 08:01:00,
2013-04-28 04:06:00,39.2,33.9,30.33,South,172,0.0,0.0,81,0.00,,,0.00,WeatherCatV1.11B39,2013-04-28 08:06:00,
2013-04-28 04:11:00,39.2,34.2,30.33,South,172,0.0,0.0,82,0.00,,,0.00,WeatherCatV1.11B39,2013-04-28 08:11:00,
2013-04-28 04:16:00,39.1,34.1,30.33,South,172,0.0,0.0,82,0.00,,,0.00,WeatherCatV1.11B39,2013-04-28 08:16:00,
2013-04-28 04:21:00,39.1,34.1,30.33,South,172,0.0,0.0,82,0.00,,,0.00,WeatherCatV1.11B39,2013-04-28 08:21:00,
2013-04-28 04:26:00,39.1,34.4,30.32,South,172,0.0,0.0,83,0.00,,,0.00,WeatherCatV1.11B39,2013-04-28 08:26:00,
2013-04-28 04:31:00,38.9,34.2,30.32,South,172,0.0,0.0,83,0.00,,,0.00,WeatherCatV1.11B39,2013-04-28 08:31:00,
2013-04-28 04:36:00,38.9,34.5,30.32,South,172,0.0,0.0,84,0.00,,,0.00,WeatherCatV1.11B39,2013-04-28 08:36:00,
2013-04-28 04:41:00,38.9,34.5,30.32,South,172,0.0,0.0,84,0.00,,,0.00,WeatherCatV1.11B39,2013-04-28 08:41:00,
2013-04-28 04:46:00,39.1,34.7,30.32,South,172,0.0,0.0,84,0.00,,,0.00,WeatherCatV1.11B39,2013-04-28 08:46:00,
2013-04-28 04:51:00,39.1,35.0,30.32,South,172,0.0,0.0,85,0.00,,,0.00,WeatherCatV1.11B39,2013-04-28 08:51:00,
2013-04-28 04:56:00,38.9,34.8,30.32,South,172,0.0,0.0,85,0.00,,,0.00,WeatherCatV1.11B39,2013-04-28 08:56:00,
2013-04-28 05:01:00,38.8,34.7,30.32,South,172,0.0,0.0,85,0.00,,,0.00,WeatherCatV1.11B39,2013-04-28 09:01:00,
2013-04-28 05:06:00,38.7,34.6,30.32,South,172,0.0,0.0,85,0.00,,,0.00,WeatherCatV1.11B39,2013-04-28 09:06:00,
2013-04-28 05:11:00,38.5,34.7,30.32,South,172,0.0,0.0,86,0.00,,,0.00,WeatherCatV1.11B39,2013-04-28 09:11:00,
2013-04-28 05:16:00,38.4,34.6,30.32,South,172,0.0,0.0,86,0.00,,,0.00,WeatherCatV1.11B39,2013-04-28 09:16:00,
2013-04-28 05:21:00,38.4,34.6,30.32,South,172,0.0,0.0,86,0.00,,,0.00,WeatherCatV1.11B39,2013-04-28 09:21:00,
2013-04-28 05:26:00,38.4,34.6,30.32,South,172,0.0,0.0,86,0.00,,,0.00,WeatherCatV1.11B39,2013-04-28 09:26:00,
2013-04-28 05:31:00,38.4,34.6,30.32,South,172,0.0,0.0,86,0.00,,,0.00,WeatherCatV1.11B39,2013-04-28 09:31:00,
2013-04-28 05:36:00,38.4,34.6,30.32,South,172,0.0,0.0,86,0.00,,,0.00,WeatherCatV1.11B39,2013-04-28 09:36:00,
2013-04-28 05:41:00,38.5,34.7,30.33,South,172,0.0,0.0,86,0.00,,,0.00,WeatherCatV1.11B39,2013-04-28 09:41:00,
2013-04-28 05:46:00,38.4,34.9,30.32,South,172,0.0,0.0,87,0.00,,,0.00,WeatherCatV1.11B39,2013-04-28 09:46:00,
2013-04-28 05:51:00,38.4,34.9,30.33,South,172,0.0,0.0,87,0.00,,,0.00,WeatherCatV1.11B39,2013-04-28 09:51:00,
2013-04-28 05:56:00,38.5,35.0,30.32,South,172,0.0,0.0,87,0.00,,,0.00,WeatherCatV1.11B39,2013-04-28 09:56:00,
2013-04-28 06:01:00,38.5,35.3,30.33,South,172,0.0,0.0,88,0.00,,,0.00,WeatherCatV1.11B39,2013-04-28 10:01:00,
2013-04-28 06:06:00,38.5,34.7,30.33,South,172,0.0,0.0,86,0.00,,,0.00,WeatherCatV1.11B39,2013-04-28 10:06:00,
2013-04-28 06:11:00,38.5,35.0,30.33,South,172,0.0,0.0,87,0.00,,,0.00,WeatherCatV1.11B39,2013-04-28 10:11:00,
2013-04-28 06:16:00,38.5,35.0,30.33,South,172,0.0,0.0,87,0.00,,,0.00,WeatherCatV1.11B39,2013-04-28 10:16:00,
2013-04-28 06:21:00,38.7,35.5,30.33,South,172,0.0,0.0,88,0.00,,,0.00,WeatherCatV1.11B39,2013-04-28 10:21:00,
2013-04-28 06:26:00,38.8,35.3,30.32,South,172,0.0,0.0,87,0.00,,,0.00,WeatherCatV1.11B39,2013-04-28 10:26:00,
2013-04-28 06:31:00,38.8,35.6,30.33,South,172,0.0,0.0,88,0.00,,,0.00,WeatherCatV1.11B39,2013-04-28 10:31:00,
2013-04-28 06:36:00,39.0,35.8,30.33,South,172,0.0,0.0,88,0.00,,,0.00,WeatherCatV1.11B39,2013-04-28 10:36:00,
2013-04-28 06:41:00,38.9,35.7,30.33,South,172,0.0,0.0,88,0.00,,,0.00,WeatherCatV1.11B39,2013-04-28 10:41:00,
2013-04-28 06:46:00,39.2,36.0,30.33,South,172,0.0,0.0,88,0.00,,,0.00,WeatherCatV1.11B39,2013-04-28 10:46:00,
2013-04-28 06:51:00,39.4,36.4,30.33,South,172,0.0,0.0,89,0.00,,,0.00,WeatherCatV1.11B39,2013-04-28 10:51:00,
2013-04-28 06:56:00,39.5,36.2,30.33,South,172,0.0,0.0,88,0.00,,,0.00,WeatherCatV1.11B39,2013-04-28 10:56:00,
2013-04-28 07:01:00,39.9,36.9,30.33,South,172,0.0,0.0,89,0.00,,,0.00,WeatherCatV1.11B39,2013-04-28 11:01:00,
2013-04-28 07:06:00,40.1,36.8,30.33,South,172,0.0,0.0,88,0.00,,,0.00,WeatherCatV1.11B39,2013-04-28 11:06:00,
2013-04-28 07:11:00,40.2,36.9,30.34,South,171,0.0,0.0,88,0.00,,,0.00,WeatherCatV1.11B39,2013-04-28 11:11:00,
2013-04-28 07:16:00,40.5,37.2,30.34,South,172,0.0,0.0,88,0.00,,,0.00,WeatherCatV1.11B39,2013-04-28 11:16:00,
2013-04-28 07:21:00,40.9,37.6,30.34,South,171,0.0,0.0,88,0.00,,,0.00,WeatherCatV1.11B39,2013-04-28 11:21:00,
2013-04-28 07:26:00,41.4,38.4,30.34,South,172,0.0,0.0,89,0.00,,,0.00,WeatherCatV1.11B39,2013-04-28 11:26:00,
2013-04-28 07:31:00,41.7,38.4,30.35,South,172,0.0,0.0,88,0.00,,,0.00,WeatherCatV1.11B39,2013-04-28 11:31:00,
2013-04-28 07:36:00,42.2,38.9,30.35,South,172,0.0,0.0,88,0.00,,,0.00,WeatherCatV1.11B39,2013-04-28 11:36:00,
2013-04-28 07:41:00,42.8,39.5,30.34,South,172,0.0,0.0,88,0.00,,,0.00,WeatherCatV1.11B39,2013-04-28 11:41:00,
2013-04-28 07:46:00,43.5,40.2,30.35,South,171,0.0,0.0,88,0.00,,,0.00,WeatherCatV1.11B39,2013-04-28 11:46:00,
2013-04-28 07:51:00,43.9,40.0,30.35,South,174,0.0,0.0,86,0.00,,,0.00,WeatherCatV1.11B39,2013-04-28 11:51:00,
2013-04-28 07:56:00,44.5,40.6,30.36,South,177,0.0,0.0,86,0.00,,,0.00,WeatherCatV1.11B39,2013-04-28 11:56:00,
2013-04-28 08:01:00,45.1,40.9,30.36,South,177,0.0,0.0,85,0.00,,,0.00,WeatherCatV1.11B39,2013-04-28 12:01:00,
2013-04-28 08:06:00,45.6,40.4,30.36,South,177,0.0,0.0,82,0.00,,,0.00,WeatherCatV1.11B39,2013-04-28 12:06:00,
2013-04-28 08:11:00,46.0,40.5,30.36,South,177,0.0,0.0,81,0.00,,,0.00,WeatherCatV1.11B39,2013-04-28 12:11:00,
2013-04-28 08:16:00,46.6,40.8,30.36,South,176,0.0,0.0,80,0.00,,,0.00,WeatherCatV1.11B39,2013-04-28 12:16:00,
2013-04-28 08:21:00,47.1,40.3,30.36,South,176,0.0,0.0,77,0.00,,,0.00,WeatherCatV1.11B39,2013-04-28 12:21:00,
2013-04-28 08:26:00,47.7,40.5,30.36,South,176,0.0,0.0,76,0.00,,,0.00,WeatherCatV1.11B39,2013-04-28 12:26:00,
2013-04-28 08:31:00,48.2,41.0,30.36,South,182,0.0,0.0,76,0.00,,,0.00,WeatherCatV1.11B39,2013-04-28 12:31:00,
2013-04-28 08:36:00,48.8,40.9,30.36,South,182,0.0,0.0,74,0.00,,,0.00,WeatherCatV1.11B39,2013-04-28 12:36:00,
2013-04-28 08:41:00,49.2,40.9,30.36,South,191,0.0,0.0,73,0.00,,,0.00,WeatherCatV1.11B39,2013-04-28 12:41:00,
2013-04-28 08:46:00,49.5,40.9,30.36,SSW,195,0.0,0.0,72,0.00,,,0.00,WeatherCatV1.11B39,2013-04-28 12:46:00,
2013-04-28 08:51:00,50.0,41.0,30.36,SSW,195,0.0,0.0,71,0.00,,,0.00,WeatherCatV1.11B39,2013-04-28 12:51:00,
2013-04-28 08:52:00,50.1,40.7,30.36,SSW,195,0.0,0.0,70,0.00,,,0.00,WeatherCatV1.11B39,2013-04-28 12:52:00,
2013-04-28 08:57:00,50.8,41.4,30.36,SSW,195,0.0,0.0,70,0.00,,,0.00,WeatherCatV1.11B39,2013-04-28 12:57:00,
2013-04-28 09:02:00,51.5,41.7,30.36,SSW,195,0.0,0.0,69,0.00,,,0.00,WeatherCatV1.11B39,2013-04-28 13:02:00,
2013-04-28 09:07:00,52.3,41.7,30.36,SSW,194,0.0,0.0,67,0.00,,,0.00,WeatherCatV1.11B39,2013-04-28 13:07:00,
2013-04-28 09:12:00,53.3,41.4,30.36,SW,233,0.0,0.0,64,0.00,,,0.00,WeatherCatV1.11B39,2013-04-28 13:12:00,
2013-04-28 09:17:00,54.2,41.0,30.36,WSW,238,0.0,0.0,61,0.00,,,0.00,WeatherCatV1.11B39,2013-04-28 13:17:00,
2013-04-28 09:22:00,54.8,40.3,30.36,WSW,237,0.0,0.0,58,0.00,,,0.00,WeatherCatV1.11B39,2013-04-28 13:22:00,
2013-04-28 09:27:00,55.0,39.6,30.36,WSW,239,0.0,0.0,56,0.00,,,0.00,WeatherCatV1.11B39,2013-04-28 13:27:00,
2013-04-28 09:32:00,55.3,40.8,30.36,WSW,237,0.0,0.0,58,0.00,,,0.00,WeatherCatV1.11B39,2013-04-28 13:32:00,
2013-04-28 09:37:00,56.0,41.0,30.35,SW,236,0.0,0.0,57,0.00,,,0.00,WeatherCatV1.11B39,2013-04-28 13:37:00,
2013-04-28 09:42:00,56.9,41.4,30.35,SW,236,0.0,0.0,56,0.00,,,0.00,WeatherCatV1.11B39,2013-04-28 13:42:00,
2013-04-28 09:47:00,57.2,42.1,30.35,WSW,252,0.0,0.0,57,0.00,,,0.00,WeatherCatV1.11B39,2013-04-28 13:47:00,
2013-04-28 09:52:00,57.2,39.7,30.35,WSW,253,0.0,0.0,52,0.00,,,0.00,WeatherCatV1.11B39,2013-04-28 13:52:00,
2013-04-28 09:57:00,57.2,39.7,30.35,ENE,60,0.0,0.0,52,0.00,,,0.00,WeatherCatV1.11B39,2013-04-28 13:57:00,
2013-04-28 10:02:00,57.6,39.6,30.35,NE,34,0.0,0.0,51,0.00,,,0.00,WeatherCatV1.11B39,2013-04-28 14:02:00,
2013-04-28 10:07:00,58.1,41.1,30.35,SSE,163,0.0,0.0,53,0.00,,,0.00,WeatherCatV1.11B39,2013-04-28 14:07:00,
2013-04-28 10:12:00,58.4,39.8,30.35,SSE,159,0.0,0.0,50,0.00,,,0.00,WeatherCatV1.11B39,2013-04-28 14:12:00,
2013-04-28 10:17:00,59.1,41.5,30.35,South,175,0.0,0.0,52,0.00,,,0.00,WeatherCatV1.11B39,2013-04-28 14:17:00,
2013-04-28 10:22:00,59.9,40.7,30.35,SSW,194,0.0,0.0,49,0.00,,,0.00,WeatherCatV1.11B39,2013-04-28 14:22:00,
2013-04-28 10:27:00,60.6,40.8,30.35,South,181,0.0,0.0,48,0.00,,,0.00,WeatherCatV1.11B39,2013-04-28 14:27:00,
2013-04-28 10:32:00,61.0,40.6,30.35,South,183,0.0,0.0,47,0.00,,,0.00,WeatherCatV1.11B39,2013-04-28 14:32:00,
2013-04-28 10:37:00,61.0,40.6,30.35,SW,217,0.0,0.0,47,0.00,,,0.00,WeatherCatV1.11B39,2013-04-28 14:37:00,
2013-04-28 10:42:00,61.5,39.4,30.35,South,180,0.0,0.0,44,0.00,,,0.00,WeatherCatV1.11B39,2013-04-28 14:42:00,
2013-04-28 10:47:00,61.5,38.2,30.34,WSW,243,0.0,0.0,42,0.00,,,0.00,WeatherCatV1.11B39,2013-04-28 14:47:00,
2013-04-28 10:52:00,61.8,41.4,30.34,SSE,164,0.0,0.0,47,0.00,,,0.00,WeatherCatV1.11B39,2013-04-28 14:52:00,
2013-04-28 10:57:00,62.4,39.6,30.34,ENE,71,0.0,0.0,43,0.00,,,0.00,WeatherCatV1.11B39,2013-04-28 14:57:00,
2013-04-28 11:02:00,62.4,39.0,30.34,ENE,68,0.0,0.0,42,0.00,,,0.00,WeatherCatV1.11B39,2013-04-28 15:02:00,
2013-04-28 11:07:00,62.7,38.7,30.34,NNE,18,0.0,0.0,41,0.00,,,0.00,WeatherCatV1.11B39,2013-04-28 15:07:00,
2013-04-28 11:12:00,63.0,38.9,30.33,South,172,0.0,0.0,41,0.00,,,0.00,WeatherCatV1.11B39,2013-04-28 15:12:00,
2013-04-28 11:17:00,63.4,39.9,30.33,SSE,155,0.0,0.0,42,0.00,,,0.00,WeatherCatV1.11B39,2013-04-28 15:17:00,
2013-04-28 11:22:00,64.2,40.6,30.33,SSW,202,0.0,0.0,42,0.00,,,0.00,WeatherCatV1.11B39,2013-04-28 15:22:00,
2013-04-28 11:27:00,63.7,34.8,30.33,SW,236,0.0,0.0,34,0.00,,,0.00,WeatherCatV1.11B39,2013-04-28 15:27:00,
2013-04-28 11:32:00,62.9,35.5,30.33,WSW,240,2.0,7.0,36,0.00,,,0.00,WeatherCatV1.11B39,2013-04-28 15:32:00,
2013-04-28 11:37:00,62.7,36.7,30.32,South,175,0.0,1.0,38,0.00,,,0.00,WeatherCatV1.11B39,2013-04-28 15:37:00,
2013-04-28 11:42:00,63.5,35.4,30.32,SW,220,0.0,1.0,35,0.00,,,0.00,WeatherCatV1.11B39,2013-04-28 15:42:00,
2013-04-28 11:47:00,63.9,34.2,30.32,WSW,241,0.0,0.0,33,0.00,,,0.00,WeatherCatV1.11B39,2013-04-28 15:47:00,
2013-04-28 11:52:00,63.9,34.2,30.33,WSW,249,0.0,2.0,33,0.00,,,0.00,WeatherCatV1.11B39,2013-04-28 15:52:00,
2013-04-28 11:57:00,64.0,36.5,30.32,West,279,0.0,0.0,36,0.00,,,0.00,WeatherCatV1.11B39,2013-04-28 15:57:00,
2013-04-28 12:02:00,64.8,36.5,30.32,SW,234,0.0,1.0,35,0.00,,,0.00,WeatherCatV1.11B39,2013-04-28 16:02:00,
2013-04-28 12:07:00,64.9,35.1,30.32,SW,214,0.0,0.0,33,0.00,,,0.00,WeatherCatV1.11B39,2013-04-28 16:07:00,
2013-04-28 12:12:00,65.3,36.9,30.32,WSW,254,0.0,0.0,35,0.00,,,0.00,WeatherCatV1.11B39,2013-04-28 16:12:00,
2013-04-28 12:17:00,65.3,34.7,30.31,WSW,250,0.0,0.0,32,0.00,,,0.00,WeatherCatV1.11B39,2013-04-28 16:17:00,
2013-04-28 12:22:00,64.9,35.1,30.32,WSW,248,0.0,8.0,33,0.00,,,0.00,WeatherCatV1.11B39,2013-04-28 16:22:00,
2013-04-28 12:27:00,64.5,34.0,30.31,WSW,251,0.0,0.0,32,0.00,,,0.00,WeatherCatV1.11B39,2013-04-28 16:27:00,
2013-04-28 12:32:00,64.5,34.8,30.31,North,350,0.0,0.0,33,0.00,,,0.00,WeatherCatV1.11B39,2013-04-28 16:32:00,
2013-04-28 12:37:00,65.5,36.4,30.31,WSW,247,1.0,6.0,34,0.00,,,0.00,WeatherCatV1.11B39,2013-04-28 16:37:00,
2013-04-28 12:42:00,65.3,34.7,30.31,WSW,248,6.0,7.0,32,0.00,,,0.00,WeatherCatV1.11B39,2013-04-28 16:42:00,
2013-04-28 12:47:00,65.0,34.4,30.30,WSW,251,0.0,0.0,32,0.00,,,0.00,WeatherCatV1.11B39,2013-04-28 16:47:00,
2013-04-28 12:52:00,65.4,34.8,30.30,WSW,251,0.0,3.0,32,0.00,,,0.00,WeatherCatV1.11B39,2013-04-28 16:52:00,
2013-04-28 12:57:00,65.6,37.9,30.30,WSW,258,0.0,0.0,36,0.00,,,0.00,WeatherCatV1.11B39,2013-04-28 16:57:00,
2013-04-28 13:00:00,65.9,35.2,30.30,WSW,253,0.0,0.0,32,0.00,,,0.00,WeatherCatV1.11B39,2013-04-28 17:00:00,
2013-04-28 13:05:00,65.8,35.9,30.30,WSW,254,0.0,3.0,33,0.00,,,0.00,WeatherCatV1.11B39,2013-04-28 17:05:00,
2013-04-28 13:10:00,66.1,33.8,30.30,SW,220,0.0,0.0,30,0.00,,,0.00,WeatherCatV1.11B39,2013-04-28 17:10:00,
2013-04-28 13:15:00,66.6,37.3,30.29,SW,220,0.0,0.0,34,0.00,,,0.00,WeatherCatV1.11B39,2013-04-28 17:15:00,
2013-04-28 13:20:00,67.8,35.2,30.29,NNE,31,0.0,0.0,30,0.00,,,0.00,WeatherCatV1.11B39,2013-04-28 17:20:00,
2013-04-28 13:25:00,68.6,37.6,30.28,SE,125,0.0,0.0,32,0.00,,,0.00,WeatherCatV1.11B39,2013-04-28 17:25:00,
2013-04-28 13:27:00,68.9,36.2,30.28,East,88,0.0,0.0,30,0.00,,,0.00,WeatherCatV1.11B39,2013-04-28 17:27:00,
2013-04-28 13:32:00,69.6,39.2,30.28,SW,222,0.0,0.0,33,0.00,,,0.00,WeatherCatV1.11B39,2013-04-28 17:32:00,
2013-04-28 13:37:00,70.2,35.6,30.28,SSE,149,0.0,0.0,28,0.00,,,0.00,WeatherCatV1.11B39,2013-04-28 17:37:00,
2013-04-28 13:42:00,69.6,34.1,30.28,ENE,69,0.0,0.0,27,0.00,,,0.00,WeatherCatV1.11B39,2013-04-28 17:42:00,
2013-04-28 13:47:00,68.9,34.4,30.28,NE,56,0.0,0.0,28,0.00,,,0.00,WeatherCatV1.11B39,2013-04-28 17:47:00,
2013-04-28 13:52:00,68.6,36.8,30.28,NNE,19,0.0,0.0,31,0.00,,,0.00,WeatherCatV1.11B39,2013-04-28 17:52:00,
2013-04-28 13:57:00,69.1,34.6,30.27,SE,140,0.0,2.0,28,0.00,,,0.00,WeatherCatV1.11B39,2013-04-28 17:57:00,
2013-04-28 14:02:00,69.7,38.5,30.28,SSE,158,0.0,0.0,32,0.00,,,0.00,WeatherCatV1.11B39,2013-04-28 18:02:00,
2013-04-28 14:07:00,70.6,35.9,30.28,SSE,154,0.0,2.0,28,0.00,,,0.00,WeatherCatV1.11B39,2013-04-28 18:07:00,
2013-04-28 14:12:00,70.9,35.2,30.27,NNE,13,0.0,1.0,27,0.00,,,0.00,WeatherCatV1.11B39,2013-04-28 18:12:00,
2013-04-28 14:17:00,70.2,35.6,30.27,East,84,0.0,0.0,28,0.00,,,0.00,WeatherCatV1.11B39,2013-04-28 18:17:00,
2013-04-28 14:22:00,70.1,34.6,30.27,North,1,0.0,0.0,27,0.00,,,0.00,WeatherCatV1.11B39,2013-04-28 18:22:00,
2013-04-28 14:27:00,70.6,35.0,30.27,NNE,31,0.0,0.0,27,0.00,,,0.00,WeatherCatV1.11B39,2013-04-28 18:27:00,
2013-04-28 14:32:00,70.7,35.1,30.26,WSW,247,0.0,2.0,27,0.00,,,0.00,WeatherCatV1.11B39,2013-04-28 18:32:00,
2013-04-28 14:37:00,69.6,34.1,30.26,WSW,244,0.0,6.0,27,0.00,,,0.00,WeatherCatV1.11B39,2013-04-28 18:37:00,
2013-04-28 14:42:00,68.8,36.1,30.26,West,273,0.0,0.0,30,0.00,,,0.00,WeatherCatV1.11B39,2013-04-28 18:42:00,
2013-04-28 14:47:00,69.2,34.7,30.26,North,0,0.0,0.0,28,0.00,,,0.00,WeatherCatV1.11B39,2013-04-28 18:47:00,
2013-04-28 14:52:00,69.6,34.1,30.25,NW,312,0.0,1.0,27,0.00,,,0.00,WeatherCatV1.11B39,2013-04-28 18:52:00,
2013-04-28 14:57:00,69.3,32.9,30.25,NE,56,0.0,3.0,26,0.00,,,0.00,WeatherCatV1.11B39,2013-04-28 18:57:00,
2013-04-28 15:02:00,69.9,35.3,30.25,West,269,1.0,1.0,28,0.00,,,0.00,WeatherCatV1.11B39,2013-04-28 19:02:00,
2013-04-28 15:07:00,69.8,34.3,30.25,West,267,0.0,2.0,27,0.00,,,0.00,WeatherCatV1.11B39,2013-04-28 19:07:00,
2013-04-28 15:12:00,70.1,34.6,30.24,SW,221,0.0,0.0,27,0.00,,,0.00,WeatherCatV1.11B39,2013-04-28 19:12:00,
2013-04-28 15:17:00,69.8,32.4,30.24,SW,235,0.0,0.0,25,0.00,,,0.00,WeatherCatV1.11B39,2013-04-28 19:17:00,
2013-04-28 15:22:00,70.2,34.6,30.24,South,170,0.0,1.0,27,0.00,,,0.00,WeatherCatV1.11B39,2013-04-28 19:22:00,
2013-04-28 15:27:00,71.2,34.5,30.24,SSE,157,0.0,0.0,26,0.00,,,0.00,WeatherCatV1.11B39,2013-04-28 19:27:00,
2013-04-28 15:32:00,71.9,36.1,30.24,South,173,0.0,3.0,27,0.00,,,0.00,WeatherCatV1.11B39,2013-04-28 19:32:00,
2013-04-28 15:37:00,72.1,36.3,30.23,SSE,151,0.0,0.0,27,0.00,,,0.00,WeatherCatV1.11B39,2013-04-28 19:37:00,
2013-04-28 15:42:00,72.5,36.6,30.23,West,265,0.0,0.0,27,0.00,,,0.00,WeatherCatV1.11B39,2013-04-28 19:42:00,
2013-04-28 15:47:00,72.6,35.7,30.23,North,3,0.0,0.0,26,0.00,,,0.00,WeatherCatV1.11B39,2013-04-28 19:47:00,
2013-04-28 15:52:00,72.3,33.5,30.23,SE,146,0.0,0.0,24,0.00,,,0.00,WeatherCatV1.11B39,2013-04-28 19:52:00,
2013-04-28 15:57:00,72.3,36.4,30.23,SSE,166,1.0,2.0,27,0.00,,,0.00,WeatherCatV1.11B39,2013-04-28 19:57:00,
2013-04-28 16:02:00,72.3,33.5,30.23,SSE,165,0.0,0.0,24,0.00,,,0.00,WeatherCatV1.11B39,2013-04-28 20:02:00,
2013-04-28 16:07:00,71.9,33.1,30.23,NE,51,0.0,0.0,24,0.00,,,0.00,WeatherCatV1.11B39,2013-04-28 20:07:00,
2013-04-28 16:12:00,71.6,35.8,30.22,East,91,0.0,0.0,27,0.00,,,0.00,WeatherCatV1.11B39,2013-04-28 20:12:00,
2013-04-28 16:17:00,71.8,33.1,30.22,SW,234,0.0,0.0,24,0.00,,,0.00,WeatherCatV1.11B39,2013-04-28 20:17:00,
2013-04-28 16:22:00,70.9,34.3,30.22,NE,43,0.0,0.0,26,0.00,,,0.00,WeatherCatV1.11B39,2013-04-28 20:22:00,
2013-04-28 16:27:00,70.9,32.3,30.22,SSE,158,0.0,3.0,24,0.00,,,0.00,WeatherCatV1.11B39,2013-04-28 20:27:00,
2013-04-28 16:32:00,71.1,32.5,30.22,WSW,255,0.0,0.0,24,0.00,,,0.00,WeatherCatV1.11B39,2013-04-28 20:32:00,
2013-04-28 16:37:00,70.4,31.9,30.22,SW,225,0.0,2.0,24,0.00,,,0.00,WeatherCatV1.11B39,2013-04-28 20:37:00,
2013-04-28 16:42:00,69.9,33.4,30.22,South,188,0.0,0.0,26,0.00,,,0.00,WeatherCatV1.11B39,2013-04-28 20:42:00,
2013-04-28 16:47:00,70.2,32.7,30.22,South,184,0.0,2.0,25,0.00,,,0.00,WeatherCatV1.11B39,2013-04-28 20:47:00,
2013-04-28 16:52:00,70.1,32.6,30.22,WSW,242,0.0,0.0,25,0.00,,,0.00,WeatherCatV1.11B39,2013-04-28 20:52:00,
2013-04-28 16:57:00,69.6,33.2,30.21,NNE,22,0.0,0.0,26,0.00,,,0.00,WeatherCatV1.11B39,2013-04-28 20:57:00,
2013-04-28 17:02:00,68.9,34.4,30.21,NNW,336,0.0,0.0,28,0.00,,,0.00,WeatherCatV1.11B39,2013-04-28 21:02:00,
2013-04-28 17:07:00,68.6,36.8,30.22,NNE,33,0.0,0.0,31,0.00,,,0.00,WeatherCatV1.11B39,2013-04-28 21:07:00,
2013-04-28 17:12:00,68.6,35.1,30.22,North,359,0.0,3.0,29,0.00,,,0.00,WeatherCatV1.11B39,2013-04-28 21:12:00,
2013-04-28 17:17:00,68.4,35.7,30.22,North,359,0.0,0.0,30,0.00,,,0.00,WeatherCatV1.11B39,2013-04-28 21:17:00,
2013-04-28 17:22:00,68.4,36.6,30.22,North,353,0.0,0.0,31,0.00,,,0.00,WeatherCatV1.11B39,2013-04-28 21:22:00,
2013-04-28 17:27:00,68.3,36.5,30.22,North,10,0.0,0.0,31,0.00,,,0.00,WeatherCatV1.11B39,2013-04-28 21:27:00,
2013-04-28 17:32:00,68.2,35.6,30.22,WNW,292,0.0,0.0,30,0.00,,,0.00,WeatherCatV1.11B39,2013-04-28 21:32:00,
2013-04-28 17:37:00,68.0,35.4,30.22,North,1,0.0,0.0,30,0.00,,,0.00,WeatherCatV1.11B39,2013-04-28 21:37:00,
2013-04-28 17:42:00,68.1,35.5,30.22,North,353,0.0,0.0,30,0.00,,,0.00,WeatherCatV1.11B39,2013-04-28 21:42:00,
2013-04-28 17:47:00,68.2,37.2,30.22,North,357,0.0,0.0,32,0.00,,,0.00,WeatherCatV1.11B39,2013-04-28 21:47:00,
2013-04-28 17:52:00,68.6,35.9,30.22,South,175,0.0,7.0,30,0.00,,,0.00,WeatherCatV1.11B39,2013-04-28 21:52:00,
2013-04-28 17:57:00,68.6,34.2,30.22,South,176,0.0,0.0,28,0.00,,,0.00,WeatherCatV1.11B39,2013-04-28 21:57:00,
2013-04-28 18:02:00,68.1,33.8,30.22,SSW,192,0.0,0.0,28,0.00,,,0.00,WeatherCatV1.11B39,2013-04-28 22:02:00,
2013-04-28 18:07:00,67.6,32.4,30.22,SE,145,0.0,3.0,27,0.00,,,0.00,WeatherCatV1.11B39,2013-04-28 22:07:00,
2013-04-28 18:12:00,66.9,31.8,30.23,SSE,152,0.0,1.0,27,0.00,,,0.00,WeatherCatV1.11B39,2013-04-28 22:12:00,
2013-04-28 18:17:00,66.6,32.5,30.23,ENE,69,0.0,0.0,28,0.00,,,0.00,WeatherCatV1.11B39,2013-04-28 22:17:00,
2013-04-28 18:22:00,66.1,32.0,30.23,ENE,61,0.0,0.0,28,0.00,,,0.00,WeatherCatV1.11B39,2013-04-28 22:22:00,
2013-04-28 18:27:00,65.8,31.8,30.23,North,353,0.0,0.0,28,0.00,,,0.00,WeatherCatV1.11B39,2013-04-28 22:27:00,
2013-04-28 18:32:00,65.4,30.5,30.23,ENE,76,0.0,1.0,27,0.00,,,0.00,WeatherCatV1.11B39,2013-04-28 22:32:00,
2013-04-28 18:37:00,65.1,30.3,30.23,South,184,0.0,0.0,27,0.00,,,0.00,WeatherCatV1.11B39,2013-04-28 22:37:00,
2013-04-28 18:42:00,64.6,31.6,30.23,SSE,166,0.0,0.0,29,0.00,,,0.00,WeatherCatV1.11B39,2013-04-28 22:42:00,
2013-04-28 18:47:00,64.2,31.3,30.23,South,171,0.0,0.0,29,0.00,,,0.00,WeatherCatV1.11B39,2013-04-28 22:47:00,
2013-04-28 18:52:00,63.6,30.8,30.23,East,97,0.0,0.0,29,0.00,,,0.00,WeatherCatV1.11B39,2013-04-28 22:52:00,
2013-04-28 18:57:00,63.1,30.3,30.23,South,181,0.0,4.0,29,0.00,,,0.00,WeatherCatV1.11B39,2013-04-28 22:57:00,
2013-04-28 19:02:00,62.7,30.8,30.23,South,178,0.0,0.0,30,0.00,,,0.00,WeatherCatV1.11B39,2013-04-28 23:02:00,
2013-04-28 19:07:00,62.4,31.4,30.23,NE,41,0.0,0.0,31,0.00,,,0.00,WeatherCatV1.11B39,2013-04-28 23:07:00,
2013-04-28 19:12:00,62.1,31.1,30.23,ENE,66,0.0,0.0,31,0.00,,,0.00,WeatherCatV1.11B39,2013-04-28 23:12:00,
2013-04-28 19:17:00,61.8,30.0,30.23,SSE,156,0.0,0.0,30,0.00,,,0.00,WeatherCatV1.11B39,2013-04-28 23:17:00,
2013-04-28 19:22:00,61.5,29.8,30.23,NE,37,0.0,0.0,30,0.00,,,0.00,WeatherCatV1.11B39,2013-04-28 23:22:00,
2013-04-28 19:27:00,61.4,31.3,30.23,ESE,121,0.0,0.0,32,0.00,,,0.00,WeatherCatV1.11B39,2013-04-28 23:27:00,
2013-04-28 19:32:00,61.0,30.9,30.24,SSE,165,1.0,1.0,32,0.00,,,0.00,WeatherCatV1.11B39,2013-04-28 23:32:00,
2013-04-28 19:37:00,60.9,30.1,30.24,South,177,0.0,1.0,31,0.00,,,0.00,WeatherCatV1.11B39,2013-04-28 23:37:00,
2013-04-28 19:42:00,60.9,29.3,30.24,SW,216,0.0,0.0,30,0.00,,,0.00,WeatherCatV1.11B39,2013-04-28 23:42:00,
2013-04-28 19:47:00,60.7,29.1,30.23,SSE,164,0.0,0.0,30,0.00,,,0.00,WeatherCatV1.11B39,2013-04-28 23:47:00,
2013-04-28 19:52:00,60.7,29.1,30.23,SSE,160,0.0,0.0,30,0.00,,,0.00,WeatherCatV1.11B39,2013-04-28 23:52:00,
2013-04-28 19:57:00,60.4,28.8,30.23,SSW,202,0.0,0.0,30,0.00,,,0.00,WeatherCatV1.11B39,2013-04-28 23:57:00,
2013-04-28 20:02:00,60.2,28.7,30.24,WSW,243,1.0,1.0,30,0.00,,,0.00,WeatherCatV1.11B39,2013-04-29 00:02:00,
2013-04-28 20:07:00,60.1,29.4,30.24,SW,218,0.0,0.0,31,0.00,,,0.00,WeatherCatV1.11B39,2013-04-29 00:07:00,
2013-04-28 20:12:00,59.8,28.3,30.24,SSW,209,0.0,4.0,30,0.00,,,0.00,WeatherCatV1.11B39,2013-04-29 00:12:00,
2013-04-28 20:17:00,59.8,28.3,30.24,South,189,0.0,0.0,30,0.00,,,0.00,WeatherCatV1.11B39,2013-04-29 00:17:00,
2013-04-28 20:22:00,59.6,28.1,30.24,SSW,205,0.0,3.0,30,0.00,,,0.00,WeatherCatV1.11B39,2013-04-29 00:22:00,
2013-04-28 20:27:00,59.5,28.0,30.24,WSW,242,0.0,0.0,30,0.00,,,0.00,WeatherCatV1.11B39,2013-04-29 00:27:00,
2013-04-28 20:32:00,59.3,27.9,30.25,SW,227,0.0,11.0,30,0.00,,,0.00,WeatherCatV1.11B39,2013-04-29 00:32:00,
2013-04-28 20:37:00,59.2,27.0,30.25,SW,218,0.0,0.0,29,0.00,,,0.00,WeatherCatV1.11B39,2013-04-29 00:37:00,
2013-04-28 20:42:00,58.7,27.4,30.25,SSW,197,0.0,1.0,30,0.00,,,0.00,WeatherCatV1.11B39,2013-04-29 00:42:00,
2013-04-28 20:47:00,58.5,27.2,30.25,WSW,251,0.0,0.0,30,0.00,,,0.00,WeatherCatV1.11B39,2013-04-29 00:47:00,
2013-04-28 20:52:00,58.4,26.3,30.26,SW,216,0.0,1.0,29,0.00,,,0.00,WeatherCatV1.11B39,2013-04-29 00:52:00,
2013-04-28 20:57:00,58.1,26.8,30.26,South,182,0.0,0.0,30,0.00,,,0.00,WeatherCatV1.11B39,2013-04-29 00:57:00,
2013-04-28 21:02:00,57.9,26.7,30.26,SW,214,0.0,0.0,30,0.00,,,0.00,WeatherCatV1.11B39,2013-04-29 01:02:00,
2013-04-28 21:07:00,57.6,26.4,30.26,SSW,192,0.0,0.0,30,0.00,,,0.00,WeatherCatV1.11B39,2013-04-29 01:07:00,
2013-04-28 21:12:00,57.3,26.9,30.27,SSW,207,0.0,0.0,31,0.00,,,0.00,WeatherCatV1.11B39,2013-04-29 01:12:00,
2013-04-28 21:17:00,57.2,26.8,30.27,SSW,202,0.0,0.0,31,0.00,,,0.00,WeatherCatV1.11B39,2013-04-29 01:17:00,
2013-04-28 21:22:00,57.1,26.8,30.27,SSW,199,0.0,0.0,31,0.00,,,0.00,WeatherCatV1.11B39,2013-04-29 01:22:00,
2013-04-28 21:27:00,56.8,27.3,30.27,SSW,195,0.0,0.0,32,0.00,,,0.00,WeatherCatV1.11B39,2013-04-29 01:27:00,
2013-04-28 21:32:00,56.7,26.4,30.28,WSW,244,0.0,0.0,31,0.00,,,0.00,WeatherCatV1.11B39,2013-04-29 01:32:00,
2013-04-28 21:37:00,56.6,25.5,30.28,WSW,245,0.0,3.0,30,0.00,,,0.00,WeatherCatV1.11B39,2013-04-29 01:37:00,
2013-04-28 21:42:00,56.4,26.1,30.27,WSW,244,0.0,0.0,31,0.00,,,0.00,WeatherCatV1.11B39,2013-04-29 01:42:00,
2013-04-28 21:47:00,56.2,26.0,30.28,WSW,244,0.0,0.0,31,0.00,,,0.00,WeatherCatV1.11B39,2013-04-29 01:47:00,
2013-04-28 21:52:00,55.8,25.6,30.27,South,188,0.0,1.0,31,0.00,,,0.00,WeatherCatV1.11B39,2013-04-29 01:52:00,
2013-04-28 21:57:00,55.7,25.5,30.27,South,188,0.0,0.0,31,0.00,,,0.00,WeatherCatV1.11B39,2013-04-29 01:57:00,
2013-04-28 22:02:00,55.4,26.0,30.27,South,188,0.0,0.0,32,0.00,,,0.00,WeatherCatV1.11B39,2013-04-29 02:02:00,
2013-04-28 22:07:00,55.1,25.8,30.27,South,188,0.0,0.0,32,0.00,,,0.00,WeatherCatV1.11B39,2013-04-29 02:07:00,
2013-04-28 22:12:00,55.0,25.7,30.28,South,188,0.0,0.0,32,0.00,,,0.00,WeatherCatV1.11B39,2013-04-29 02:12:00,
2013-04-28 22:17:00,54.8,25.5,30.28,South,189,0.0,0.0,32,0.00,,,0.00,WeatherCatV1.11B39,2013-04-29 02:17:00,
2013-04-28 22:22:00,54.6,25.3,30.28,SSW,211,0.0,0.0,32,0.00,,,0.00,WeatherCatV1.11B39,2013-04-29 02:22:00,
2013-04-28 22:27:00,54.5,25.3,30.28,SSW,211,0.0,0.0,32,0.00,,,0.00,WeatherCatV1.11B39,2013-04-29 02:27:00,
2013-04-28 22:32:00,54.4,24.4,30.28,SSW,211,0.0,0.0,31,0.00,,,0.00,WeatherCatV1.11B39,2013-04-29 02:32:00,
2013-04-28 22:37:00,54.2,25.0,30.28,SW,214,0.0,2.0,32,0.00,,,0.00,WeatherCatV1.11B39,2013-04-29 02:37:00,
2013-04-28 22:42:00,54.1,24.9,30.28,SW,214,0.0,0.0,32,0.00,,,0.00,WeatherCatV1.11B39,2013-04-29 02:42:00,
2013-04-28 22:47:00,54.0,24.1,30.28,South,174,0.0,0.0,31,0.00,,,0.00,WeatherCatV1.11B39,2013-04-29 02:47:00,
2013-04-28 22:52:00,53.9,24.0,30.28,SSW,195,0.0,0.0,31,0.00,,,0.00,WeatherCatV1.11B39,2013-04-29 02:52:00,
2013-04-28 22:57:00,53.8,24.6,30.27,SSW,195,0.0,0.0,32,0.00,,,0.00,WeatherCatV1.11B39,2013-04-29 02:57:00,
2013-04-28 23:02:00,53.7,24.6,30.27,SSW,195,0.0,0.0,32,0.00,,,0.00,WeatherCatV1.11B39,2013-04-29 03:02:00,
2013-04-28 23:07:00,53.5,24.4,30.28,SSW,195,0.0,0.0,32,0.00,,,0.00,WeatherCatV1.11B39,2013-04-29 03:07:00,
2013-04-28 23:12:00,53.4,24.3,30.28,SW,218,0.0,0.0,32,0.00,,,0.00,WeatherCatV1.11B39,2013-04-29 03:12:00,
2013-04-28 23:17:00,53.2,24.9,30.28,SW,218,0.0,0.0,33,0.00,,,0.00,WeatherCatV1.11B39,2013-04-29 03:17:00,
2013-04-28 23:22:00,53.2,24.1,30.28,SW,218,0.0,0.0,32,0.00,,,0.00,WeatherCatV1.11B39,2013-04-29 03:22:00,
2013-04-28 23:27:00,53.1,24.0,30.28,SW,218,0.0,0.0,32,0.00,,,0.00,WeatherCatV1.11B39,2013-04-29 03:27:00,
2013-04-28 23:32:00,52.8,24.5,30.28,SW,226,0.0,0.0,33,0.00,,,0.00,WeatherCatV1.11B39,2013-04-29 03:32:00,
2013-04-28 23:37:00,52.8,24.5,30.28,WSW,246,0.0,0.0,33,0.00,,,0.00,WeatherCatV1.11B39,2013-04-29 03:37:00,
2013-04-28 23:42:00,52.6,24.3,30.28,SW,235,0.0,0.0,33,0.00,,,0.00,WeatherCatV1.11B39,2013-04-29 03:42:00,
2013-04-28 23:47:00,52.6,24.3,30.28,SW,235,0.0,0.0,33,0.00,,,0.00,WeatherCatV1.11B39,2013-04-29 03:47:00,
2013-04-28 23:52:00,52.5,24.2,30.28,SW,226,0.0,0.0,33,0.00,,,0.00,WeatherCatV1.11B39,2013-04-29 03:52:00,
2013-04-28 23:57:00,52.5,25.0,30.28,SW,224,0.0,0.0,34,0.00,,,0.00,WeatherCatV1.11B39,2013-04-29 03:57:00,